GW3949 Weather Reports


Display with metric or nautical units.
time (UTC)temp
F
wind
direction
speed
MPH
gust
MPH
rain 1hr
in
rain 24hr
in
rain mn
in
humidity
%
barometer
mb
20260509234404 55 215 4.0 8.0 0.00 0.37 0.37 88 1007.0
20260509233904 55 191 3.0 5.0 0.00 0.37 0.37 87 1007.0
20260509233404 55 205 2.0 5.0 0.00 0.37 0.37 86 1007.0
20260509232904 55 242 1.0 3.0 0.00 0.37 0.37 85 1006.9
20260509232404 55 251 2.0 6.0 0.00 0.37 0.37 85 1006.7
20260509231904 55 243 3.0 6.0 0.00 0.38 0.37 84 1006.7
20260509230904 55 258 4.0 10.0 0.00 0.38 0.37 85 1006.6
20260509225904 55 222 2.0 8.0 0.00 0.38 0.37 86 1006.6
20260509225404 55 261 3.0 8.0 0.00 0.38 0.37 86 1006.7
20260509224404 55 250 4.0 14.0 0.00 0.38 0.37 86 1006.7
20260509223404 54 242 4.0 8.0 0.00 0.38 0.37 88 1006.8
20260509222904 54 209 3.0 7.0 0.00 0.38 0.37 88 1007.0
20260509222404 54 212 5.0 7.0 0.00 0.38 0.37 88 1006.9
20260509221904 54 211 4.0 6.0 0.00 0.38 0.37 88 1006.9
20260509221404 54 339 3.0 9.0 0.00 0.38 0.37 88 1006.9
20260509220404 54 226 5.0 9.0 0.00 0.38 0.37 89 1006.9
20260509215904 54 255 3.0 7.0 0.00 0.38 0.37 90 1006.9
20260509215403 53 231 3.0 7.0 0.00 0.38 0.37 90 1007.0
20260509214904 53 229 5.0 9.0 0.00 0.38 0.37 90 1007.0
20260509214404 53 271 6.0 10.0 0.00 0.38 0.37 90 1007.1
20260509213904 53 258 3.0 6.0 0.00 0.38 0.37 90 1007.0
20260509213405 53 221 2.0 5.0 0.00 0.38 0.37 90 1007.0
20260509212904 53 213 3.0 7.0 0.00 0.38 0.37 90 1007.2
20260509211404 53 238 3.0 7.0 0.00 0.38 0.37 90 1007.2
20260509210904 53 334 4.0 10.0 0.00 0.38 0.37 90 1007.2
20260509210403 53 318 4.0 6.0 0.00 0.38 0.37 90 1007.3
20260509205904 53 282 4.0 8.0 0.00 0.38 0.37 91 1007.4
20260509205404 53 305 2.0 6.0 0.00 0.38 0.37 91 1007.4
20260509204903 53 305 5.0 12.0 0.00 0.38 0.37 91 1007.5
20260509204403 52 320 4.0 12.0 0.00 0.38 0.37 91 1007.5
20260509203909 52 301 5.0 12.0 0.00 0.38 0.37 91 1007.6
20260509203404 52 252 5.0 14.0 0.01 0.38 0.37 91 1007.5
20260509202404 52 240 5.0 10.0 0.01 0.38 0.37 91 1007.5
20260509201404 51 218 5.0 7.0 0.01 0.38 0.37 91 1007.5
20260509200906 51 228 5.0 12.0 0.01 0.39 0.37 91 1007.6
20260509200403 51 227 3.0 8.0 0.01 0.39 0.37 91 1007.6
20260509195903 51 217 3.0 6.0 0.02 0.39 0.37 91 1007.6
20260509194904 51 242 4.0 7.0 0.03 0.39 0.37 91 1007.7
20260509194403 51 230 2.0 7.0 0.03 0.39 0.37 91 1007.7
20260509193903 50 243 3.0 8.0 0.04 0.39 0.37 91 1007.7
20260509193403 50 310 3.0 9.0 0.04 0.38 0.36 91 1007.9
20260509192906 50 281 5.0 9.0 0.05 0.38 0.36 91 1008.0
20260509191906 51 270 3.0 8.0 0.06 0.38 0.36 91 1008.2
20260509191406 50 344 2.0 3.0 0.06 0.38 0.36 91 1008.2
20260509190905 50 250 2.0 5.0 0.07 0.38 0.36 91 1008.2
20260509190406 50 283 4.0 7.0 0.08 0.38 0.36 91 1008.2
20260509184906 50 191 5.0 10.0 0.09 0.36 0.34 91 1008.4
20260509184406 50 309 5.0 14.0 0.10 0.36 0.34 91 1008.4
20260509183905 50 320 3.0 9.0 0.10 0.35 0.33 91 1008.4
20260509182905 50 244 5.0 13.0 0.10 0.33 0.31 91 1008.7
20260509181906 50 224 5.0 12.0 0.10 0.32 0.30 91 1008.5
20260509181406 50 203 4.0 12.0 0.11 0.32 0.30 91 1008.4
20260509180905 49 264 6.0 10.0 0.11 0.31 0.29 90 1008.5
20260509180405 49 236 5.0 12.0 0.10 0.30 0.28 90 1008.6
20260509175906 49 262 7.0 13.0 0.11 0.30 0.28 90 1008.5
20260509174405 49 207 7.0 13.0 0.11 0.26 0.24 90 1008.6
20260509173905 49 213 7.0 13.0 0.11 0.25 0.23 90 1008.6
20260509172905 49 208 5.0 10.0 0.10 0.23 0.21 90 1008.6
20260509172406 49 207 6.0 10.0 0.10 0.22 0.20 90 1008.6
20260509171905 49 212 6.0 12.0 0.11 0.22 0.20 90 1008.7
20260509171405 49 204 6.0 9.0 0.11 0.21 0.19 90 1008.7
20260509170405 49 202 7.0 13.0 0.10 0.20 0.18 91 1008.7
20260509165905 49 202 6.0 12.0 0.10 0.19 0.17 91 1008.8
20260509165405 49 206 6.0 12.0 0.09 0.18 0.16 91 1008.8
20260509164905 49 212 5.0 9.0 0.08 0.16 0.14 91 1008.8
20260509164405 49 203 7.0 9.0 0.07 0.15 0.13 91 1008.7
20260509163905 49 219 6.0 10.0 0.06 0.14 0.12 91 1008.8
20260509163405 49 210 5.0 9.0 0.05 0.13 0.11 91 1008.8
20260509162905 49 205 5.0 9.0 0.05 0.13 0.11 91 1008.8
20260509162405 49 197 5.0 10.0 0.04 0.12 0.10 91 1008.9
20260509161905 49 203 7.0 12.0 0.03 0.11 0.09 91 1009.0
20260509161405 49 212 5.0 10.0 0.02 0.10 0.08 91 1009.0
20260509160905 49 209 5.0 12.0 0.02 0.10 0.08 91 1009.1
20260509154905 49 189 5.0 10.0 0.01 0.08 0.06 91 1008.9
20260509154405 49 179 5.0 9.0 0.01 0.08 0.06 91 1008.9
20260509153405 49 203 6.0 9.0 0.02 0.08 0.06 91 1009.0
20260509152905 49 197 6.0 8.0 0.02 0.08 0.06 91 1009.1
20260509151905 49 187 5.0 9.0 0.02 0.08 0.06 91 1009.2
20260509151405 49 197 5.0 8.0 0.02 0.08 0.06 91 1009.1
20260509150905 49 188 3.0 6.0 0.03 0.08 0.06 91 1009.1
20260509150405 49 194 3.0 6.0 0.03 0.08 0.06 91 1009.0
20260509145405 49 209 5.0 8.0 0.03 0.07 0.05 91 1008.9
20260509144905 49 198 3.0 6.0 0.03 0.07 0.05 91 1008.9
20260509144405 49 190 3.0 5.0 0.03 0.07 0.05 91 1009.0
20260509143905 49 205 3.0 6.0 0.03 0.06 0.04 91 1009.0
20260509142905 49 148 1.0 2.0 0.03 0.06 0.04 90 1008.5
20260509142405 49 149 2.0 5.0 0.03 0.06 0.04 90 1008.5
20260509141905 49 161 2.0 5.0 0.03 0.06 0.04 90 1008.6
20260509141405 49 159 2.0 6.0 0.03 0.06 0.04 90 1008.7
20260509140905 49 178 3.0 6.0 0.02 0.05 0.03 90 1009.0
20260509140406 49 191 3.0 12.0 0.02 0.05 0.03 90 1009.1
20260509135905 49 189 6.0 13.0 0.02 0.05 0.03 89 1009.1
20260509135405 49 198 6.0 12.0 0.01 0.04 0.02 89 1009.1
20260509134906 49 203 4.0 8.0 0.01 0.04 0.02 89 1009.1
20260509133905 49 164 5.0 8.0 0.00 0.03 0.01 88 1008.7
20260509133405 49 166 3.0 8.0 0.00 0.03 0.01 89 1008.5
20260509132905 49 202 3.0 6.0 0.00 0.03 0.01 89 1008.6
20260509132405 49 181 2.0 6.0 0.00 0.03 0.01 88 1008.6
20260509131905 49 156 2.0 5.0 0.00 0.03 0.01 88 1008.5
20260509130905 49 152 2.0 7.0 0.00 0.03 0.01 88 1008.5
20260509130405 49 156 3.0 8.0 0.00 0.03 0.01 88 1008.6
20260509125905 49 185 4.0 8.0 0.00 0.03 0.01 87 1008.6
20260509124404 49 171 5.0 10.0 0.00 0.03 0.01 87 1008.6
20260509123905 49 170 5.0 12.0 0.00 0.03 0.01 87 1008.8
20260509123405 49 135 2.0 8.0 0.00 0.03 0.01 86 1008.6
20260509122905 49 148 4.0 9.0 0.00 0.03 0.01 86 1008.7
20260509121905 49 157 5.0 9.0 0.00 0.03 0.01 87 1008.7
20260509121405 49 169 3.0 6.0 0.00 0.03 0.01 87 1008.7
20260509120905 49 158 3.0 7.0 0.00 0.03 0.01 87 1008.8
20260509120405 49 164 4.0 8.0 0.00 0.03 0.01 87 1008.8
20260509115905 49 161 3.0 8.0 0.00 0.03 0.01 88 1008.8
20260509115405 49 154 3.0 8.0 0.00 0.03 0.01 88 1008.7
20260509114905 49 162 3.0 7.0 0.00 0.03 0.01 88 1008.7
20260509114404 49 149 3.0 6.0 0.00 0.03 0.01 88 1008.7
20260509113905 48 163 3.0 5.0 0.00 0.03 0.01 88 1008.7
20260509113405 48 159 3.0 5.0 0.01 0.03 0.01 88 1008.7
20260509112904 48 153 3.0 6.0 0.01 0.03 0.01 88 1008.8
20260509112404 48 168 2.0 5.0 0.01 0.03 0.01 88 1008.9
20260509111905 48 156 2.0 6.0 0.01 0.03 0.01 88 1008.9
20260509110405 48 166 3.0 7.0 0.01 0.03 0.01 87 1008.9
20260509105905 48 165 2.0 6.0 0.01 0.03 0.01 87 1008.9
20260509105405 48 158 2.0 6.0 0.01 0.03 0.01 87 1008.7
20260509104905 48 159 3.0 8.0 0.01 0.03 0.01 87 1008.7
20260509103905 48 152 2.0 7.0 0.01 0.03 0.01 87 1008.7
20260509103405 48 156 3.0 5.0 0.00 0.02 0.00 87 1008.9
20260509102904 48 133 3.0 5.0 0.00 0.02 0.00 87 1008.9
20260509102404 48 144 2.0 3.0 0.00 0.02 0.00 87 1008.8
20260509101904 48 154 4.0 7.0 0.00 0.02 0.00 87 1008.6
20260509101405 48 144 3.0 7.0 0.00 0.02 0.00 87 1008.7
20260509100905 48 207 2.0 6.0 0.00 0.02 0.00 87 1008.7
20260509094404 47 148 6.0 10.0 0.00 0.02 0.00 88 1008.5
20260509093905 48 162 2.0 5.0 0.00 0.02 0.00 88 1008.8
20260509092405 48 140 2.0 5.0 0.00 0.02 0.00 87 1008.9
20260509091905 48 156 2.0 3.0 0.00 0.02 0.00 87 1008.9
20260509091405 48 159 2.0 3.0 0.00 0.02 0.00 87 1008.9
20260509090905 48 165 1.0 3.0 0.00 0.02 0.00 87 1009.0
20260509090405 48 165 1.0 3.0 0.00 0.02 0.00 87 1009.0
20260509085905 48 165 1.0 2.0 0.00 0.02 0.00 87 1009.1
20260509085404 48 165 1.0 3.0 0.00 0.02 0.00 87 1009.1
20260509084905 48 166 1.0 3.0 0.00 0.02 0.00 88 1009.0
20260509084405 48 166 2.0 3.0 0.00 0.02 0.00 88 1009.1
20260509083905 48 170 2.0 3.0 0.00 0.02 0.00 88 1009.1
20260509083404 48 180 1.0 2.0 0.00 0.02 0.00 88 1009.1
20260509082405 48 176 2.0 3.0 0.00 0.02 0.00 88 1009.3
20260509081405 48 168 1.0 3.0 0.00 0.02 0.00 89 1009.4
20260509080904 48 169 2.0 3.0 0.00 0.02 0.00 89 1009.6
20260509080404 48 169 1.0 3.0 0.00 0.02 0.00 89 1009.7
20260509075404 48 169 1.0 3.0 0.00 0.02 0.00 89 1009.7
20260509073905 48 171 2.0 3.0 0.00 0.02 0.00 89 1009.7
20260509073405 48 175 2.0 3.0 0.00 0.02 0.00 89 1009.7
20260509072904 48 175 1.0 3.0 0.00 0.02 0.00 89 1009.9
20260509072405 48 178 1.0 3.0 0.00 0.02 0.00 89 1009.9
20260509071904 48 175 1.0 3.0 0.00 0.02 0.00 89 1009.9
20260509070904 48 169 2.0 3.0 0.00 0.02 0.00 89 1009.9
20260509070404 48 158 2.0 3.0 0.00 0.02 0.00 89 1010.0
20260509065905 48 158 2.0 3.0 0.00 0.02 0.00 89 1009.9
20260509065404 48 147 1.0 3.0 0.00 0.02 0.00 89 1009.8
20260509064904 48 195 1.0 3.0 0.00 0.02 0.00 89 1009.7
20260509063905 48 0 0.0 2.0 0.00 0.02 0.00 89 1009.7
20260509063404 48 0 1.0 3.0 0.00 0.02 0.00 89 1009.8
20260509062404 48 0 0.0 1.0 0.00 0.02 0.00 88 1010.0
20260509060905 49 354 2.0 3.0 0.00 0.02 0.00 88 1010.0
20260509060404 49 0 2.0 5.0 0.00 0.02 0.00 88 1010.0
20260509055404 49 3 3.0 3.0 0.00 0.02 0.00 87 1010.2
20260509054905 49 226 2.0 3.0 0.00 0.02 0.00 87 1010.3
20260509054405 49 201 0.0 2.0 0.00 0.02 0.00 87 1010.3
20260509053905 49 201 2.0 3.0 0.00 0.02 0.00 86 1010.4
20260509053405 49 207 3.0 5.0 0.00 0.03 0.00 86 1010.5
20260509052904 49 210 2.0 6.0 0.00 0.03 0.00 86 1010.6
20260509052404 49 194 5.0 8.0 0.00 0.03 0.00 86 1010.6
20260509051905 49 192 5.0 10.0 0.00 0.03 0.00 86 1010.6
20260509051404 49 184 4.0 8.0 0.00 0.04 0.00 86 1010.6
20260509050904 49 197 3.0 6.0 0.00 0.05 0.00 86 1010.7
20260509050404 49 205 3.0 6.0 0.00 0.06 0.00 86 1010.6
20260509045904 49 202 4.0 7.0 0.00 0.07 0.00 86 1010.7
20260509045404 49 208 5.0 7.0 0.00 0.07 0.00 86 1010.7
20260509044904 49 208 5.0 9.0 0.00 0.07 0.00 87 1010.7
20260509044409 49 194 4.0 7.0 0.00 0.07 0.00 87 1010.8
20260509043904 49 190 4.0 7.0 0.00 0.07 0.00 88 1010.7
20260509043404 49 197 3.0 5.0 0.00 0.07 0.00 87 1010.5
20260509042904 49 0 1.0 3.0 0.00 0.07 0.00 87 1010.0
20260509041904 49 11 2.0 5.0 0.00 0.07 0.00 86 1010.1
20260509041404 50 0 2.0 5.0 0.00 0.07 0.00 86 1010.1
20260509040904 50 0 3.0 5.0 0.00 0.07 0.00 85 1010.2
20260509040404 50 0 2.0 5.0 0.00 0.07 0.00 84 1010.2
20260509035904 50 0 4.0 6.0 0.00 0.07 0.07 84 1010.2
20260509034904 50 356 5.0 7.0 0.00 0.07 0.07 84 1010.3
20260509034404 50 286 4.0 8.0 0.00 0.07 0.07 84 1010.5
20260509033904 50 332 4.0 7.0 0.00 0.07 0.07 84 1010.6
20260509033404 50 279 2.0 3.0 0.00 0.07 0.07 85 1010.5
20260509032904 50 209 2.0 3.0 0.00 0.07 0.07 85 1010.5
20260509032404 50 236 2.0 3.0 0.00 0.07 0.07 85 1010.7
20260509031904 50 219 2.0 3.0 0.00 0.07 0.07 85 1010.7
20260509031404 50 271 1.0 3.0 0.00 0.07 0.07 85 1010.7
20260509030905 49 277 1.0 3.0 0.00 0.07 0.07 86 1010.8
20260509030404 49 276 1.0 2.0 0.00 0.07 0.07 86 1011.0
20260509025404 49 226 1.0 3.0 0.00 0.07 0.07 87 1011.0
20260509024904 49 221 2.0 3.0 0.00 0.07 0.07 87 1010.9
20260509024404 49 242 2.0 3.0 0.00 0.07 0.07 86 1010.8
20260509023905 49 202 1.0 3.0 0.00 0.07 0.07 86 1010.5
20260509022408 50 239 1.0 3.0 0.00 0.07 0.07 84 1010.6
20260509021404 50 237 1.0 2.0 0.00 0.07 0.07 83 1010.6
20260509020904 50 237 0.0 3.0 0.00 0.07 0.07 83 1010.6
20260509020404 50 236 1.0 2.0 0.00 0.07 0.07 83 1010.7
20260509015404 50 236 1.0 3.0 0.00 0.07 0.07 82 1010.5
20260509014905 50 297 1.0 3.0 0.00 0.07 0.07 82 1010.5
20260509014404 51 0 1.0 2.0 0.00 0.07 0.07 82 1010.5
20260509013904 51 357 2.0 3.0 0.00 0.07 0.07 82 1010.4
20260509013404 51 326 2.0 3.0 0.00 0.07 0.07 81 1010.4
20260509012905 51 294 1.0 3.0 0.00 0.07 0.07 82 1010.3
20260509012405 51 242 2.0 5.0 0.00 0.07 0.07 81 1010.4
20260509011904 51 0 1.0 6.0 0.00 0.07 0.07 82 1010.3
20260509011405 51 338 3.0 6.0 0.00 0.07 0.07 82 1010.2
20260509010905 51 337 2.0 6.0 0.00 0.07 0.07 82 1010.3
20260509010404 51 267 3.0 7.0 0.00 0.07 0.07 83 1010.1
20260509005905 50 253 2.0 7.0 0.00 0.07 0.07 83 1010.0
20260509004403 50 213 3.0 6.0 0.00 0.07 0.07 85 1009.8
20260509002404 50 220 2.0 5.0 0.00 0.07 0.07 85 1009.8
20260509001904 50 200 2.0 5.0 0.01 0.07 0.07 85 1009.7
20260509001404 50 200 2.0 3.0 0.01 0.07 0.07 85 1009.6
20260509000904 50 199 3.0 6.0 0.01 0.07 0.07 85 1009.4
20260509000404 49 228 2.0 6.0 0.01 0.07 0.07 85 1009.4
20260508235404 50 0 1.0 2.0 0.01 0.07 0.07 85 1009.5
20260508234904 50 0 2.0 3.0 0.01 0.07 0.07 85 1009.7